• In Belgium
  • List of Countries
  • For 7 days
  • Water Temperature
  • Satellite Maps
  • Weather Map
  • Weather Widgets
  • user-avatar
    Login

    Hourly Weather Pamplona

    Today, 24 September, Monday

    Time Temperature Precipitation Wind Pressure Humidity
    00:00 +19°C° 0 mm 3 mps 726 mmHg 91%
    01:00 +19°C° 0.1 mm 3 mps 726 mmHg 90%
    02:00 +19°C° 0.1 mm 4 mps 726 mmHg 89%
    03:00 +19°C° 0.1 mm 4 mps 726 mmHg 88%
    04:00 +19°C° 0.1 mm 4 mps 726 mmHg 88%
    05:00 +18°C° 0.1 mm 3 mps 726 mmHg 88%
    06:00 +18°C° 0.1 mm 3 mps 726 mmHg 88%
    07:00 +18°C° 0 mm 4 mps 727 mmHg 86%
    08:00 +18°C° 0 mm 4 mps 727 mmHg 84%
    09:00 +17°C° 0 mm 4 mps 727 mmHg 81%
    10:00 +18°C° 0 mm 4 mps 727 mmHg 76%
    11:00 +18°C° 0 mm 4 mps 727 mmHg 71%
    12:00 +17°C° 0 mm 5 mps 727 mmHg 66%
    13:00 +19°C° 0 mm 5 mps 727 mmHg 61%
    14:00 +19°C° 0 mm 5 mps 726 mmHg 56%
    15:00 +19°C° 0 mm 5 mps 726 mmHg 51%
    16:00 +17°C° 0 mm 5 mps 726 mmHg 57%
    17:00 +15°C° 0 mm 4 mps 726 mmHg 63%
    18:00 +13°C° 0 mm 4 mps 726 mmHg 70%
    19:00 +12°C° 0 mm 4 mps 726 mmHg 74%
    20:00 +11°C° 0 mm 3 mps 726 mmHg 78%
    21:00 +10°C° 0 mm 3 mps 726 mmHg 81%
    22:00 +10°C° 0 mm 3 mps 726 mmHg 81%
    23:00 +10°C° 0 mm 3 mps 726 mmHg 81%

    Tomorrow, 25 September, Tuesday

    Time Temperature Precipitation Wind Pressure Humidity
    00:00 +10°C° 0 mm 3 mps 726 mmHg 81%
    01:00 +9°C° 0 mm 2 mps 726 mmHg 82%
    02:00 +9°C° 0 mm 2 mps 726 mmHg 83%
    03:00 +9°C° 0 mm 2 mps 725 mmHg 83%
    04:00 +9°C° 0 mm 2 mps 725 mmHg 84%
    05:00 +8°C° 0 mm 2 mps 725 mmHg 84%
    06:00 +8°C° 0 mm 2 mps 725 mmHg 85%
    07:00 +12°C° 0 mm 2 mps 726 mmHg 74%
    08:00 +14°C° 0 mm 2 mps 726 mmHg 64%
    09:00 +16°C° 0 mm 2 mps 726 mmHg 53%
    10:00 +18°C° 0 mm 2 mps 726 mmHg 49%
    11:00 +20°C° 0 mm 2 mps 726 mmHg 45%
    12:00 +21°C° 0 mm 2 mps 726 mmHg 41%
    13:00 +23°C° 0 mm 2 mps 726 mmHg 42%
    14:00 +23°C° 0 mm 2 mps 726 mmHg 43%
    15:00 +23°C° 0 mm 2 mps 726 mmHg 43%
    16:00 +21°C° 0 mm 1 mps 726 mmHg 49%
    17:00 +19°C° 0 mm 1 mps 725 mmHg 56%
    18:00 +18°C° 0 mm 1 mps 725 mmHg 62%
    19:00 +16°C° 0 mm 1 mps 726 mmHg 64%
    20:00 +15°C° 0 mm 1 mps 726 mmHg 65%
    21:00 +14°C° 0 mm 1 mps 726 mmHg 67%
    22:00 +15°C° 0 mm 1 mps 726 mmHg 70%
    23:00 +15°C° 0 mm 2 mps 726 mmHg 72%

    Day after tomorrow, 26 September, Wednesday

    Time Temperature Precipitation Wind Pressure Humidity
    00:00 +15°C° 0 mm 2 mps 726 mmHg 74%
    01:00 +15°C° 0 mm 2 mps 726 mmHg 80%
    02:00 +15°C° 0 mm 2 mps 726 mmHg 85%
    03:00 +14°C° 0 mm 3 mps 726 mmHg 90%
    04:00 +14°C° 0 mm 3 mps 726 mmHg 90%
    05:00 +14°C° 0 mm 3 mps 726 mmHg 90%
    06:00 +14°C° 0 mm 3 mps 726 mmHg 90%
    07:00 +17°C° 0 mm 4 mps 727 mmHg 81%
    08:00 +19°C° 0 mm 5 mps 727 mmHg 71%
    09:00 +21°C° 0 mm 6 mps 727 mmHg 61%
    10:00 +22°C° 0 mm 6 mps 727 mmHg 57%
    11:00 +23°C° 0 mm 6 mps 728 mmHg 53%
    12:00 +24°C° 0 mm 6 mps 728 mmHg 49%
    13:00 +26°C° 0 mm 6 mps 727 mmHg 47%
    14:00 +26°C° 0 mm 6 mps 727 mmHg 46%
    15:00 +26°C° 0 mm 6 mps 726 mmHg 45%
    16:00 +25°C° 0 mm 5 mps 726 mmHg 49%
    17:00 +22°C° 0 mm 4 mps 726 mmHg 53%
    18:00 +21°C° 0 mm 3 mps 726 mmHg 57%
    19:00 +20°C° 0 mm 3 mps 727 mmHg 58%
    20:00 +19°C° 0 mm 3 mps 727 mmHg 59%
    21:00 +19°C° 0 mm 3 mps 728 mmHg 60%
    22:00 +18°C° 0 mm 3 mps 728 mmHg 64%
    23:00 +17°C° 0 mm 3 mps 728 mmHg 68%

    27 September, Thursday

    Time Temperature Precipitation Wind Pressure Humidity
    00:00 +17°C° 0 mm 3 mps 728 mmHg 71%
    01:00 +16°C° 0 mm 3 mps 727 mmHg 75%
    02:00 +16°C° 0 mm 3 mps 727 mmHg 79%
    03:00 +16°C° 0 mm 3 mps 727 mmHg 82%
    04:00 +16°C° 0 mm 3 mps 727 mmHg 83%
    05:00 +16°C° 0 mm 3 mps 727 mmHg 83%
    06:00 +16°C° 0 mm 3 mps 727 mmHg 83%
    07:00 +17°C° 0 mm 3 mps 727 mmHg 78%
    08:00 +19°C° 0 mm 3 mps 728 mmHg 72%
    09:00 +20°C° 0 mm 4 mps 728 mmHg 67%
    10:00 +22°C° 0 mm 4 mps 728 mmHg 61%
    11:00 +23°C° 0 mm 4 mps 728 mmHg 56%
    12:00 +26°C° 0 mm 4 mps 728 mmHg 50%
    13:00 +27°C° 0 mm 3 mps 727 mmHg 48%
    14:00 +27°C° 0 mm 3 mps 727 mmHg 46%
    15:00 +28°C° 0 mm 3 mps 726 mmHg 44%
    16:00 +26°C° 0 mm 2 mps 726 mmHg 50%
    17:00 +24°C° 0 mm 2 mps 726 mmHg 56%
    18:00 +21°C° 0 mm 2 mps 725 mmHg 62%
    19:00 +21°C° 0 mm 2 mps 726 mmHg 64%
    20:00 +20°C° 0 mm 2 mps 726 mmHg 66%
    21:00 +19°C° 0 mm 2 mps 726 mmHg 68%
    22:00 +19°C° 0 mm 2 mps 726 mmHg 69%
    23:00 +18°C° 0 mm 2 mps 725 mmHg 70%

    28 September, Friday

    Time Temperature Precipitation Wind Pressure Humidity
    00:00 +18°C° 0 mm 2 mps 725 mmHg 71%
    01:00 +19°C° 0 mm 1 mps 725 mmHg 72%
    02:00 +19°C° 0 mm 1 mps 724 mmHg 72%
    03:00 +18°C° 0 mm 1 mps 724 mmHg 73%
    04:00 +18°C° 0 mm 1 mps 724 mmHg 74%
    05:00 +18°C° 0 mm 1 mps 724 mmHg 75%
    06:00 +18°C° 0 mm 1 mps 724 mmHg 76%
    07:00 +20°C° 0 mm 1 mps 724 mmHg 70%
    08:00 +22°C° 0 mm 1 mps 724 mmHg 63%
    09:00 +25°C° 0 mm 1 mps 724 mmHg 57%
    10:00 +26°C° 0 mm 1 mps 724 mmHg 53%
    11:00 +27°C° 0 mm 2 mps 724 mmHg 49%
    12:00 +28°C° 0 mm 2 mps 724 mmHg 45%
    13:00 +28°C° 0 mm 3 mps 723 mmHg 45%
    14:00 +28°C° 0 mm 3 mps 723 mmHg 45%
    15:00 +28°C° 0 mm 3 mps 722 mmHg 46%
    16:00 +26°C° 0 mm 3 mps 722 mmHg 54%
    17:00 +24°C° 0 mm 3 mps 722 mmHg 63%
    18:00 +21°C° 0 mm 2 mps 722 mmHg 72%
    19:00 +20°C° 0 mm 2 mps 722 mmHg 76%
    20:00 +19°C° 0 mm 2 mps 722 mmHg 80%
    21:00 +18°C° 0 mm 2 mps 722 mmHg 84%
    22:00 +17°C° 0 mm 2 mps 722 mmHg 85%
    23:00 +17°C° 0 mm 2 mps 722 mmHg 86%

    29 September, Saturday

    Time Temperature Precipitation Wind Pressure Humidity
    00:00 +17°C° 0 mm 2 mps 721 mmHg 86%
    01:00 +16°C° 0 mm 2 mps 721 mmHg 87%
    02:00 +16°C° 0 mm 2 mps 721 mmHg 88%
    03:00 +16°C° 0 mm 1 mps 721 mmHg 89%
    04:00 +16°C° 0 mm 1 mps 720 mmHg 89%
    05:00 +15°C° 0 mm 1 mps 720 mmHg 89%
    06:00 +15°C° 0 mm 1 mps 720 mmHg 90%
    07:00 +18°C° 0 mm 1 mps 721 mmHg 81%
    08:00 +21°C° 0 mm 1 mps 721 mmHg 73%
    09:00 +23°C° 0 mm 2 mps 721 mmHg 64%
    10:00 +24°C° 0 mm 2 mps 721 mmHg 58%
    11:00 +26°C° 0 mm 2 mps 721 mmHg 52%
    12:00 +27°C° 0 mm 2 mps 721 mmHg 46%
    13:00 +27°C° 0 mm 2 mps 720 mmHg 46%
    14:00 +27°C° 0 mm 2 mps 720 mmHg 46%
    15:00 +28°C° 0 mm 2 mps 719 mmHg 46%
    16:00 +26°C° 0 mm 2 mps 719 mmHg 55%
    17:00 +24°C° 0 mm 2 mps 719 mmHg 64%
    18:00 +22°C° 0 mm 1 mps 719 mmHg 73%
    19:00 +21°C° 0 mm 1 mps 719 mmHg 77%
    20:00 +20°C° 0 mm 1 mps 719 mmHg 81%
    21:00 +19°C° 0 mm 1 mps 720 mmHg 85%
    22:00 +19°C° 0 mm 1 mps 719 mmHg 85%
    23:00 +18°C° 0 mm 1 mps 719 mmHg 84%
    Show more